Location: ?????????
(55.6553°N, 38.9075°E)
Time: 20:51:08
(UTC+00:00)

Cosmos 2237 Rocket - Pass Details

Date: 18 October 2019
Orbit: 833 x 851 km, 71.0° (Epoch: 16 November)

Event Time Altitude Azimuth Distance (km) Brightness Sun altitude
Rises 01:45:56 0° 189° (S) 3,394 5.1 -19.5°
Reaches altitude 10° 01:48:27 10° 183° (S) 2,466 4.5 -19.2°
Maximum altitude 01:53:49 45° 112° (ESE) 1,143 3.3 -18.5°
Drops below altitude 10° 01:59:13 10° 42° (NE) 2,490 5.4 -17.7°
Sets 02:01:46 0° 36° (NE) 3,431 6.1 -17.4°
